When you browse on this site, cookies collect data to enhance your experience and personalize the content and advertising you see.
Visit our Privacy Policy to learn more. By continuing to use the site, you agree to this use of cookies and data.
  • En España
  • Lista de países
  • Para 7 días
  • Temperatura del agua
  • Mapa Satelital
  • El tiempo en el mapa
  • Informadores
  • user-avatar
    Iniciar sesión

    Tiempo cada hora Hajfa

    Hoy, 19 Abril, Viernes

    Tiempo Temperatura Precipitaciones Viento Presión Humedad
    00:00 +14°C° 0.1 mm 4 mps 758 mmHg 76%
    01:00 +14°C° 0.1 mm 4 mps 758 mmHg 77%
    02:00 +14°C° 0.1 mm 5 mps 758 mmHg 78%
    03:00 +14°C° 0.1 mm 5 mps 758 mmHg 79%
    04:00 +14°C° 0.1 mm 5 mps 758 mmHg 79%
    05:00 +14°C° 0.1 mm 6 mps 758 mmHg 80%
    06:00 +15°C° 0.1 mm 6 mps 758 mmHg 76%
    07:00 +15°C° 0.1 mm 6 mps 758 mmHg 72%
    08:00 +16°C° 0.1 mm 7 mps 758 mmHg 68%
    09:00 +17°C° 0.1 mm 7 mps 758 mmHg 66%
    10:00 +17°C° 0.1 mm 8 mps 758 mmHg 64%
    11:00 +18°C° 0.1 mm 8 mps 758 mmHg 61%
    12:00 +18°C° 0.2 mm 8 mps 758 mmHg 62%
    13:00 +18°C° 0.2 mm 8 mps 758 mmHg 62%
    14:00 +18°C° 0.2 mm 8 mps 758 mmHg 62%
    15:00 +17°C° 0.5 mm 8 mps 758 mmHg 65%
    16:00 +17°C° 0.5 mm 8 mps 758 mmHg 68%
    17:00 +16°C° 0.5 mm 7 mps 757 mmHg 71%
    18:00 +16°C° 0.3 mm 7 mps 758 mmHg 73%
    19:00 +15°C° 0.3 mm 6 mps 758 mmHg 75%
    20:00 +14°C° 0.3 mm 5 mps 758 mmHg 78%
    21:00 +14°C° 0.1 mm 5 mps 758 mmHg 78%
    22:00 +14°C° 0.1 mm 5 mps 758 mmHg 78%
    23:00 +14°C° 0.1 mm 5 mps 758 mmHg 79%

    Mañana, 20 Abril, Sábado

    Tiempo Temperatura Precipitaciones Viento Presión Humedad
    00:00 +14°C° 0.1 mm 5 mps 758 mmHg 79%
    01:00 +14°C° 0.1 mm 5 mps 758 mmHg 79%
    02:00 +14°C° 0.1 mm 5 mps 758 mmHg 79%
    03:00 +13°C° 0.1 mm 5 mps 758 mmHg 80%
    04:00 +13°C° 0.1 mm 4 mps 757 mmHg 80%
    05:00 +13°C° 0.1 mm 4 mps 757 mmHg 80%
    06:00 +14°C° 0.1 mm 5 mps 758 mmHg 76%
    07:00 +15°C° 0.1 mm 5 mps 758 mmHg 73%
    08:00 +16°C° 0.1 mm 5 mps 758 mmHg 69%
    09:00 +17°C° 0.1 mm 6 mps 758 mmHg 67%
    10:00 +17°C° 0.1 mm 6 mps 758 mmHg 65%
    11:00 +18°C° 0.1 mm 7 mps 758 mmHg 63%
    12:00 +18°C° 0 mm 7 mps 758 mmHg 63%
    13:00 +18°C° 0 mm 7 mps 757 mmHg 62%
    14:00 +18°C° 0 mm 7 mps 757 mmHg 62%
    15:00 +17°C° 0.1 mm 7 mps 757 mmHg 65%
    16:00 +17°C° 0.1 mm 7 mps 757 mmHg 68%
    17:00 +17°C° 0.1 mm 7 mps 757 mmHg 70%
    18:00 +16°C° 0.1 mm 6 mps 757 mmHg 73%
    19:00 +15°C° 0.1 mm 6 mps 757 mmHg 76%
    20:00 +15°C° 0.1 mm 6 mps 757 mmHg 79%
    21:00 +15°C° 0.1 mm 6 mps 757 mmHg 80%
    22:00 +14°C° 0.1 mm 6 mps 757 mmHg 81%
    23:00 +14°C° 0.1 mm 6 mps 757 mmHg 81%

    Pasado mañana, 21 Abril, Domingo

    Tiempo Temperatura Precipitaciones Viento Presión Humedad
    00:00 +14°C° 0.1 mm 6 mps 757 mmHg 81%
    01:00 +14°C° 0.1 mm 6 mps 756 mmHg 80%
    02:00 +14°C° 0.1 mm 7 mps 756 mmHg 79%
    03:00 +14°C° 0.2 mm 7 mps 755 mmHg 79%
    04:00 +14°C° 0.2 mm 7 mps 755 mmHg 79%
    05:00 +12°C° 0.2 mm 8 mps 755 mmHg 78%
    06:00 +13°C° 0.4 mm 9 mps 755 mmHg 74%
    07:00 +14°C° 0.4 mm 10 mps 755 mmHg 69%
    08:00 +14°C° 0.4 mm 11 mps 755 mmHg 64%
    09:00 +16°C° 1.1 mm 11 mps 755 mmHg 63%
    10:00 +16°C° 1.1 mm 10 mps 756 mmHg 63%
    11:00 +16°C° 1.1 mm 10 mps 756 mmHg 62%
    12:00 +16°C° 0.6 mm 10 mps 756 mmHg 63%
    13:00 +16°C° 0.6 mm 10 mps 756 mmHg 63%
    14:00 +16°C° 0.6 mm 10 mps 756 mmHg 63%
    15:00 +14°C° 0.2 mm 10 mps 756 mmHg 62%
    16:00 +15°C° 0.2 mm 9 mps 757 mmHg 61%
    17:00 +15°C° 0.2 mm 9 mps 757 mmHg 59%
    18:00 +15°C° 0 mm 8 mps 757 mmHg 60%
    19:00 +14°C° 0 mm 7 mps 758 mmHg 60%
    20:00 +14°C° 0 mm 6 mps 758 mmHg 61%
    21:00 +14°C° 0 mm 6 mps 759 mmHg 63%
    22:00 +14°C° 0 mm 6 mps 759 mmHg 65%
    23:00 +13°C° 0 mm 5 mps 759 mmHg 67%

    22 Abril, Lunes

    Tiempo Temperatura Precipitaciones Viento Presión Humedad
    00:00 +13°C° 0 mm 5 mps 759 mmHg 66%
    01:00 +13°C° 0 mm 5 mps 758 mmHg 65%
    02:00 +13°C° 0 mm 4 mps 758 mmHg 65%
    03:00 +13°C° 0 mm 5 mps 758 mmHg 65%
    04:00 +13°C° 0 mm 5 mps 758 mmHg 65%
    05:00 +13°C° 0 mm 6 mps 758 mmHg 65%
    06:00 +14°C° 0 mm 6 mps 759 mmHg 66%
    07:00 +15°C° 0 mm 7 mps 759 mmHg 67%
    08:00 +16°C° 0 mm 7 mps 759 mmHg 68%
    09:00 +17°C° 0 mm 7 mps 759 mmHg 66%
    10:00 +17°C° 0 mm 7 mps 760 mmHg 63%
    11:00 +18°C° 0 mm 7 mps 760 mmHg 61%
    12:00 +18°C° 0.1 mm 7 mps 760 mmHg 61%
    13:00 +18°C° 0.1 mm 7 mps 760 mmHg 61%
    14:00 +18°C° 0.1 mm 7 mps 759 mmHg 61%
    15:00 +17°C° 0.1 mm 7 mps 759 mmHg 63%
    16:00 +17°C° 0.1 mm 6 mps 760 mmHg 65%
    17:00 +17°C° 0.1 mm 6 mps 760 mmHg 66%
    18:00 +16°C° 0 mm 5 mps 760 mmHg 68%
    19:00 +15°C° 0 mm 4 mps 760 mmHg 69%
    20:00 +15°C° 0 mm 4 mps 761 mmHg 70%
    21:00 +16°C° 0 mm 3 mps 761 mmHg 70%
    22:00 +16°C° 0 mm 3 mps 761 mmHg 71%
    23:00 +14°C° 0 mm 3 mps 761 mmHg 71%

    23 Abril, Martes

    Tiempo Temperatura Precipitaciones Viento Presión Humedad
    00:00 +15°C° 0 mm 2 mps 761 mmHg 72%
    01:00 +15°C° 0 mm 2 mps 761 mmHg 73%
    02:00 +15°C° 0 mm 2 mps 761 mmHg 75%
    03:00 +15°C° 0 mm 2 mps 761 mmHg 76%
    04:00 +14°C° 0 mm 1 mps 761 mmHg 77%
    05:00 +14°C° 0 mm 1 mps 762 mmHg 78%
    06:00 +16°C° 0 mm 1 mps 762 mmHg 74%
    07:00 +17°C° 0 mm 2 mps 763 mmHg 70%
    08:00 +18°C° 0 mm 2 mps 763 mmHg 66%
    09:00 +19°C° 0 mm 2 mps 763 mmHg 62%
    10:00 +20°C° 0 mm 3 mps 763 mmHg 59%
    11:00 +21°C° 0 mm 3 mps 763 mmHg 55%
    12:00 +21°C° 0 mm 4 mps 763 mmHg 55%
    13:00 +21°C° 0 mm 4 mps 763 mmHg 55%
    14:00 +21°C° 0 mm 5 mps 763 mmHg 54%
    15:00 +20°C° 0 mm 5 mps 763 mmHg 57%
    16:00 +20°C° 0 mm 5 mps 763 mmHg 59%
    17:00 +19°C° 0 mm 6 mps 763 mmHg 61%
    18:00 +17°C° 0 mm 5 mps 763 mmHg 63%
    19:00 +17°C° 0 mm 4 mps 763 mmHg 65%
    20:00 +15°C° 0 mm 4 mps 763 mmHg 67%
    21:00 +15°C° 0 mm 4 mps 763 mmHg 67%
    22:00 +15°C° 0 mm 4 mps 763 mmHg 68%
    23:00 +15°C° 0 mm 4 mps 763 mmHg 68%

    24 Abril, Miércoles

    Tiempo Temperatura Precipitaciones Viento Presión Humedad
    00:00 +15°C° 0 mm 4 mps 763 mmHg 69%
    01:00 +15°C° 0 mm 4 mps 763 mmHg 70%
    02:00 +14°C° 0 mm 4 mps 763 mmHg 70%
    03:00 +14°C° 0 mm 3 mps 763 mmHg 72%
    04:00 +14°C° 0 mm 3 mps 763 mmHg 73%
    05:00 +14°C° 0 mm 3 mps 763 mmHg 74%
    06:00 +16°C° 0 mm 2 mps 763 mmHg 69%
    07:00 +18°C° 0 mm 2 mps 763 mmHg 64%
    08:00 +20°C° 0 mm 1 mps 763 mmHg 60%
    09:00 +21°C° 0 mm 2 mps 763 mmHg 56%
    10:00 +22°C° 0 mm 3 mps 763 mmHg 53%
    11:00 +23°C° 0 mm 4 mps 763 mmHg 50%
    12:00 +23°C° 0 mm 4 mps 762 mmHg 49%
    13:00 +23°C° 0 mm 5 mps 762 mmHg 49%
    14:00 +23°C° 0 mm 6 mps 762 mmHg 48%
    15:00 +23°C° 0 mm 6 mps 761 mmHg 50%
    16:00 +22°C° 0 mm 6 mps 761 mmHg 51%
    17:00 +21°C° 0 mm 5 mps 761 mmHg 52%
    18:00 +20°C° 0 mm 5 mps 761 mmHg 57%
    19:00 +19°C° 0 mm 5 mps 761 mmHg 62%
    20:00 +18°C° 0 mm 4 mps 761 mmHg 67%
    21:00 +18°C° 0 mm 4 mps 761 mmHg 67%
    22:00 +17°C° 0 mm 3 mps 761 mmHg 66%
    23:00 +17°C° 0 mm 3 mps 761 mmHg 66%
    Mostrar más